Content
SEND FEEDBACK

Daily
Averages
Monthly
Summary
United States of America

FORT LEE, NEW JERSEY


Home > North America > United States > New Jersey
Elevation: 128 feet     Latitude: 40 46N     Longitude: 073 58W

WEATHER
 
SELECT A DAY
Number of Records: 150,546;   Date Range: 11/1/95 - 9/30/14
 
SHARE

PRINT THIS DATA

[ ← Previous Day ]
WEATHER ALMANAC - APRIL 24, 2013
[ Next Day → ]
[ °C ]   °F
Weather ElementAverageHighLow
Temperature54.2 °F66.9 °F (12:51 pm)44.1 °F (4:51 am)
Dewpoint43 °F48.9 °F (10:51 pm)37 °F (4:51 am)
Humidity67.2 %80 % (7:51 pm)45 % (12:51 pm)
Barometer29.96 in30.07 in (1:51 am)29.84 in (6:51 pm)
Wind Speed4.9 mph8.1 mph (1:51 pm)
Weather ElementAverage
Visibility9 mi
Wind DirectionSE (133.5 °)

Weather ElementTotal
Precipitation---
Heating Degree Days9.5 (Base 65)
Growing Degree Days5.5 (Base 50)
Averaged from 23 records on April 24, 2013
WEATHER CONDITIONS BREAKOUT
WIND DIRECTION BREAKOUT
WEATHER BY HOUR - APRIL 24, 2013
[ °C ]   °F
Local TimeTemperatureDewpointHumidityBarometerVisibilityWind DirectionWind SpeedGust SpeedPrecipitationEventsConditions
1:51 AM46.0 °F37.9 °F73 %30.07 in10.0 miVariable5.8 mphClear
2:51 AM45.0 °F37.9 °F76 %30.07 in10.0 miNW (320°)4.6 mphClear
3:51 AM45.0 °F37.9 °F76 %30.05 in10.0 miNorth (360°)4.6 mphClear
4:51 AM44.1 °F37.0 °F76 %30.06 in10.0 miWNW (300°)4.6 mphClear
5:51 AM44.1 °F37.0 °F76 %30.06 in10.0 miWNW (300°)3.5 mphClear
6:51 AM44.1 °F37.0 °F76 %30.07 in10.0 miCalmClear
7:51 AM46.9 °F37.0 °F68 %30.07 in10.0 miWNW (290°)3.5 mphClear
8:51 AM50.0 °F39.0 °F66 %30.06 in10.0 miWest (280°)4.6 mphClear
9:51 AM54.0 °F39.9 °F59 %30.04 in10.0 miVariable5.8 mphClear
10:51 AM57.9 °F41.0 °F53 %30.03 in10.0 miSW (230°)3.5 mphClear
11:51 AM62.1 °F43.0 °F50 %29.99 in10.0 miVariable3.5 mphClear
12:51 PM66.9 °F45.0 °F45 %29.95 in10.0 miVariable5.8 mphClear
1:51 PM64.9 °F44.1 °F47 %29.92 in10.0 miSouth (180°)8.1 mphClear
2:51 PM64.9 °F46.0 °F50 %29.90 in8.0 miSSE (150°)8.1 mphClear
3:51 PM64.0 °F46.9 °F54 %29.88 in7.0 miVariable6.9 mphClear
4:51 PM62.1 °F46.9 °F58 %29.87 in8.0 miSE (140°)8.1 mphClear
5:51 PM57.0 °F46.9 °F69 %29.86 in8.0 miVariable3.5 mphClear
6:51 PM54.0 °F46.9 °F77 %29.84 in7.0 miVariable6.9 mphClear
7:51 PM54.0 °F48.0 °F80 %29.86 in7.0 miSouth (180°)4.6 mphClear
8:51 PM54.0 °F48.0 °F80 %29.88 in7.0 miSSE (160°)4.6 mphClear
9:51 PM55.0 °F48.0 °F77 %29.88 in8.0 miSouth (180°)5.8 mphClear
10:51 PM55.0 °F48.9 °F80 %29.88 in8.0 miVariable3.5 mphClear
11:51 PM55.0 °F48.9 °F80 %29.87 in8.0 miVariable3.5 mphOvercast
Hourly data recorded from KNYC, located miles away from Fort Lee, New Jersey







STORIES FROM OUR PARTNERS